RH
21 22 22 23 29 37 41 43 48 48 43 36 35 36 39 33 29 26 25 25 26 27 28 28 28 27 27 28 34 41 41 41 44 45 43 41 39 37 33 29 25 22 25
22 22 22 23 33 35 45 50 47 47 41 38 39 41 42 34 30 28 31 32 32 31 31 31 33 36 41 45 46 48 48 47 45 42 37 32 28 28 26 23 20 20 21
23 23 22 22 26 33 49 52 47 48 47 48 47 47 39 34 30 33 34 33 32 32 39 46 50 50 48 49 49 47 45 41 35 29 26 24 23 23 23 22 21 19 19
22 22 23 23 25 34 46 50 51 55 55 54 49 38 36 32 34 35 35 38 48 53 52 51 50 47 41 35 32 30 29 29 27 25 23 23 25 27 27 26 25 24 18
24 24 25 25 31 36 42 45 47 48 54 55 42 38 34 35 46 60 62 59 56 49 42 37 34 31 31 31 32 29 25 24 25 27 26 26 26 25 26 28 26 26 26
25 23 23 26 28 33 37 41 50 56 54 44 42 40 57 68 63 63 58 50 45 42 39 38 37 35 34 32 35 36 36 36 36 34 33 33 32 34 33 33 33 32 30
22 23 27 32 39 41 43 59 57 49 46 50 61 72 64 54 46 42 48 49 41 37 36 36 43 51 55 51 47 51 46 44 40 38 38 40 37 33 34 34 36 36 37
23 29 39 43 44 53 54 45 47 59 71 72 56 42 39 37 39 41 45 41 40 48 54 57 57 54 51 50 43 44 53 54 51 49 48 41 40 39 38 34 35 37 38
31 39 41 41 45 45 46 57 78 76 48 38 36 36 38 36 38 41 44 42 48 55 67 73 48 43 47 46 44 55 65 59 54 46 46 47 45 41 39 38 37 35 38
45 41 42 45 47 62 85 80 52 38 38 35 37 36 37 36 44 52 51 58 59 58 50 46 47 53 49 44 50 52 63 67 63 55 48 42 38 36 33 33 33 30 29
42 41 43 66 87 76 53 40 40 37 35 35 36 35 38 40 48 58 62 71 69 62 58 56 52 55 55 53 56 58 62 64 62 56 55 43 36 33 35 32 29 26 21
48 72 82 55 50 47 40 36 34 39 44 43 42 43 43 47 56 68 79 79 87 94 66 59 78 62 61 74 79 100 100 77 66 52 47 37 29 24 23 22 19 16 14
46 40 48 52 39 42 48 56 63 60 59 61 63 55 59 62 74 96 91 93 64 57 70 91 80 75 94 100 92 54 44 41 39 33 25 20 16 13 12 9 8 8 8
49 45 41 40 44 49 51 53 58 63 70 72 65 64 68 86 99 96 90 63 74 92 78 83 91 89 67 62 54 37 38 33 20 15 13 8 6 5 4 4 4 5 5
39 48 56 61 51 55 66 72 74 67 61 61 65 77 91 93 81 63 87 92 86 89 90 98 89 72 65 45 38 32 19 13 10 6 4 4 3 3 3 3 3 3 3
60 60 54 52 49 51 58 61 57 54 57 60 66 76 69 73 98 99 93 98 90 92 83 50 41 38 39 34 22 16 8 4 4 3 3 3 2 2 2 2 2 2 2
58 40 38 40 44 52 64 62 62 64 77 84 90 89 98 90 92 90 76 62 63 63 50 44 43 37 27 17 7 5 4 3 2 2 2 2 2 2 2 2 2 2 2
47 40 52 58 68 66 74 75 85 88 92 69 69 63 60 74 91 83 70 57 56 45 40 39 32 18 10 5 4 3 2 2 2 2 2 2 2 2 2 2 2 2 2
52 59 64 60 76 80 86 100 94 91 91 92 65 76 84 73 65 58 63 54 43 41 38 29 14 8 5 4 2 2 2 2 2 2 2 2 2 2 2 2 2 2 2
62 72 89 92 92 96 100 77 99 81 83 70 86 88 79 78 82 74 67 56 41 32 18 7 5 4 3 3 2 2 2 2 2 2 2 2 2 2 2 2 2 2 2
100 98 92 88 81 60 72 65 83 75 64 63 87 94 98 83 74 61 42 37 26 11 6 4 3 3 3 2 2 2 2 2 2 2 3 2 2 2 2 2 2 2 2
99 94 88 86 70 90 80 84 60 64 88 100 92 97 99 82 68 51 38 17 7 6 4 3 3 3 3 3 2 2 2 2 3 3 3 3 2 2 2 2 2 2 2
98 95 77 86 85 83 89 67 79 93 100 99 100 99 77 56 38 21 10 7 5 4 3 3 3 4 4 3 3 3 3 3 3 3 3 2 2 1 1 2 2 2 2
98 96 81 91 100 89 78 90 96 94 99 99 91 75 53 28 15 9 7 5 3 3 3 3 4 5 5 4 3 3 2 2 3 3 3 2 2 2 1 2 2 2 2
90 80 85 99 86 72 94 97 98 84 74 83 71 48 18 13 9 6 4 3 3 3 4 4 5 6 5 4 3 2 3 3 2 3 2 2 2 2 2 2 2 2 2
58 56 70 68 62 73 99 98 86 84 86 75 33 14 10 7 6 4 4 4 3 4 5 5 5 4 4 4 3 3 2 2 2 2 2 2 2 2 2 2 2 2 2
Wind_Speed
50 51 54 54 54 56 57 58 58 58 57 55 56 59 60 59 59 55 50 45 44 45 47 48 51 53 56 57 57 57 59 59 62 65 66 65 66 69 68 69 63 54 54
53 55 59 57 57 59 60 61 62 61 59 58 59 61 63 63 61 53 49 47 49 50 53 55 57 58 57 59 62 65 68 69 69 72 74 76 73 70 69 66 63 55 47
57 60 62 61 61 62 63 64 64 62 61 62 64 66 66 66 60 54 54 55 56 57 57 58 60 62 65 68 71 72 73 74 74 72 72 72 72 71 68 67 65 59 48
64 66 64 63 65 66 67 69 67 66 65 66 68 68 69 64 60 60 60 59 60 62 65 68 69 72 73 75 74 74 74 74 74 77 74 72 71 74 75 73 67 66 59
67 66 66 68 70 70 71 71 69 67 67 70 71 71 67 66 64 64 67 69 70 72 73 74 74 74 74 75 77 78 80 81 81 80 80 80 80 77 75 78 77 71 67
69 70 72 73 73 73 72 70 68 68 71 72 72 69 69 69 71 72 74 74 73 73 73 73 74 77 80 82 82 85 86 85 85 87 88 89 90 89 85 83 83 80 76
74 75 74 75 75 75 71 70 70 71 72 71 69 71 72 73 74 74 73 74 75 76 78 80 82 84 88 89 90 91 91 94 94 94 94 95 95 95 94 91 89 86 89
76 74 76 76 74 69 69 70 70 69 68 71 73 73 73 73 73 74 76 77 80 82 85 88 91 94 94 96 96 97 99 102 103 104 105 105 106 105 102 99 99 96 94
75 76 76 72 69 69 69 68 68 70 70 70 71 72 74 75 77 78 80 82 85 87 90 93 95 100 101 102 104 106 108 110 110 110 112 114 115 114 113 112 106 102 96
78 75 71 68 68 67 68 71 71 70 70 71 74 75 77 78 81 84 87 90 93 95 96 98 105 108 109 108 110 109 112 115 117 119 123 124 127 126 121 119 114 111 106
71 70 68 67 68 70 71 71 70 72 76 79 81 81 84 87 89 90 94 97 100 103 106 109 114 118 120 121 121 122 124 127 129 130 133 135 134 128 129 125 121 117 114
67 66 68 67 66 70 73 76 78 78 80 83 86 89 93 96 98 99 102 105 110 113 117 119 121 123 126 127 130 132 136 139 139 143 143 136 132 127 124 123 121 118 115
65 65 64 69 73 74 76 79 82 85 88 92 95 99 103 105 108 109 112 115 119 119 122 125 128 131 134 135 139 144 143 142 143 140 134 128 124 118 113 109 107 106 107
63 67 69 72 75 79 82 85 89 92 95 99 103 106 109 112 114 117 120 123 126 129 129 132 135 138 142 144 148 150 149 145 136 130 118 108 103 104 105 105 104 102 101
67 70 73 77 80 84 88 91 95 98 101 105 109 111 113 117 119 122 126 129 131 134 137 141 145 148 153 151 151 143 138 128 116 110 103 102 101 102 103 102 100 99 97
71 74 78 80 83 87 91 95 97 101 105 107 112 116 120 123 127 130 132 134 137 140 141 147 149 148 150 148 141 135 121 107 104 101 98 96 95 96 96 95 92 91 89
76 77 79 81 85 90 91 95 99 105 109 114 118 123 127 129 131 133 136 141 144 146 152 153 151 148 143 136 123 113 108 98 93 93 92 90 88 87 87 86 82 82 84
81 83 85 88 92 95 98 101 105 109 110 115 119 126 130 133 136 139 144 147 147 149 150 146 142 137 128 120 111 104 97 89 85 84 84 81 80 80 79 78 77 75 76
85 88 91 93 98 101 105 108 113 117 124 125 129 134 136 138 138 141 145 150 148 148 144 139 134 123 115 111 104 96 89 81 77 76 75 73 70 72 71 65 70 70 70
94 95 98 102 106 111 110 116 120 124 126 130 136 139 142 144 148 151 154 152 145 139 133 124 114 107 98 95 92 87 81 74 69 67 69 69 61 61 60 56 60 63 69
100 102 103 107 110 114 118 125 127 128 132 136 138 142 144 153 152 152 145 142 136 128 116 110 103 96 91 89 86 81 75 69 64 63 65 64 58 52 56 53 53 59 63
108 110 112 116 121 123 125 128 132 135 137 140 145 149 152 161 157 149 140 130 121 112 107 98 92 89 88 84 79 75 69 64 59 60 60 58 53 49 49 48 49 53 55
111 115 119 123 127 130 132 135 137 139 142 147 150 151 160 152 139 130 125 117 111 104 95 89 85 82 82 79 75 69 63 58 54 52 53 53 49 45 44 42 44 46 48
120 122 124 126 130 135 138 140 141 146 150 153 159 160 148 135 128 120 117 110 98 91 87 80 75 74 75 73 67 61 55 49 48 48 48 46 44 43 41 39 40 42 44
124 126 128 130 134 137 142 145 148 154 157 156 156 145 130 121 117 113 105 95 90 82 74 71 69 65 67 67 62 56 50 45 44 43 42 40 38 38 37 36 36 38 41
124 125 129 130 135 139 145 147 155 160 157 156 134 126 118 110 107 97 92 90 79 73 68 62 59 58 56 57 55 50 44 42 40 41 37 35 33 33 33 31 31 32 36
Wind_Direction
279 284 285 287 289 291 293 295 296 296 294 294 299 301 302 304 305 306 302 296 291 290 290 290 291 293 294 294 295 295 294 293 292 292 291 290 291 292 293 295 295 294 297
281 284 286 287 288 290 291 293 295 295 295 297 299 300 303 304 305 303 298 295 294 293 294 294 293 292 293 293 293 294 295 294 294 296 296 297 295 293 294 294 291 289 288
281 283 285 288 290 290 290 292 296 296 296 298 300 301 302 303 302 300 298 297 295 295 294 294 294 293 292 293 293 293 293 293 292 292 292 293 294 294 293 292 293 288 281
283 284 287 288 289 289 291 293 296 295 296 299 299 300 300 300 299 299 298 298 297 295 294 295 295 295 295 295 295 295 295 295 294 295 294 293 295 297 298 296 294 293 284
282 285 287 288 288 290 291 294 294 295 297 297 298 299 300 300 301 301 301 300 300 300 299 298 297 298 299 298 297 296 295 297 299 300 300 300 301 298 297 297 294 290 286
282 285 285 287 289 292 294 294 295 295 295 296 298 299 299 300 301 302 302 302 301 301 301 300 300 301 302 301 302 302 301 300 300 301 301 301 301 299 297 294 293 292 289
284 286 288 290 292 293 294 293 293 293 295 296 296 297 299 301 302 302 301 300 300 300 301 302 303 303 303 302 300 300 301 302 302 301 300 299 297 296 294 293 290 287 286
284 287 289 289 291 290 290 291 293 293 294 294 295 297 299 300 301 300 299 299 300 302 303 304 304 303 302 303 302 301 300 300 299 298 297 297 296 295 293 290 287 285 282
284 286 286 286 286 288 290 291 291 292 293 295 297 298 297 298 299 300 301 302 303 302 302 301 302 302 301 301 301 300 298 300 298 296 296 295 294 293 290 288 285 281 277
284 283 283 286 288 289 289 290 291 292 294 295 297 298 299 299 301 302 303 303 301 300 299 299 300 301 301 300 300 299 297 297 297 296 295 294 293 290 288 286 283 278 273
279 280 284 287 288 289 290 291 293 294 296 298 299 301 301 301 301 301 301 302 301 301 300 300 303 303 301 301 301 301 300 298 297 295 294 294 292 288 287 282 278 275 270
281 283 285 286 287 289 291 293 296 297 298 300 301 300 300 301 302 303 302 302 303 301 300 299 300 300 300 297 298 297 295 295 295 295 294 291 286 282 279 276 274 272 269
282 284 285 287 291 293 295 296 297 298 300 300 300 300 301 302 302 302 301 300 300 300 299 298 299 299 299 298 298 298 298 298 297 293 289 288 285 283 278 273 270 269 267
282 286 290 292 294 295 296 299 300 300 300 299 299 299 300 301 300 299 299 299 299 300 301 301 300 300 300 300 299 299 297 295 292 291 288 286 282 278 275 272 269 266 264
285 288 291 294 298 299 299 299 299 299 299 299 299 298 298 298 298 299 300 300 301 303 302 301 301 300 300 299 298 296 292 293 292 287 286 283 280 277 274 272 271 269 267
287 291 293 295 296 297 297 298 298 299 299 299 299 299 300 300 300 300 301 302 301 301 302 303 302 301 301 299 296 297 295 292 291 288 286 283 280 277 275 273 271 269 266
287 289 291 291 293 294 296 298 298 299 300 299 300 301 300 300 300 301 302 303 303 301 301 303 304 302 299 298 298 296 293 290 289 287 285 283 280 277 276 275 272 269 265
285 287 288 289 289 293 294 297 297 298 300 301 302 302 303 303 302 302 301 302 303 304 304 304 301 299 300 299 298 296 294 293 291 287 285 283 279 276 273 272 270 267 264
285 285 287 290 291 293 295 296 299 300 300 300 303 303 302 303 303 303 303 304 305 306 304 302 301 303 302 300 299 297 295 294 291 288 284 280 278 275 273 271 268 266 263
286 288 290 292 293 295 295 299 298 299 302 301 301 302 303 304 305 306 306 306 307 304 301 302 304 303 301 299 297 296 296 296 294 291 286 283 279 278 275 269 264 262 260
288 289 290 291 292 294 295 299 302 301 302 304 304 305 306 308 308 308 307 305 303 303 304 306 306 304 302 299 298 298 298 297 296 292 288 286 284 278 274 268 263 259 260
286 288 289 290 293 294 296 297 299 302 303 304 305 306 306 309 307 308 305 303 304 305 307 306 306 304 301 299 300 300 300 299 297 292 289 284 281 276 270 267 263 261 259
286 287 289 290 291 293 295 298 300 302 304 304 305 305 306 307 306 304 304 304 306 307 307 307 305 303 301 300 300 301 300 299 295 289 285 283 280 276 269 263 259 257 256
286 288 290 291 292 294 295 298 300 302 303 304 305 307 306 306 306 304 305 306 307 307 307 305 305 302 300 300 301 302 303 299 294 289 285 283 281 276 271 263 257 253 251
286 288 289 290 292 295 296 297 298 302 303 304 305 306 305 305 304 306 307 306 307 307 306 306 304 302 301 302 304 306 305 300 295 290 287 284 281 276 272 266 257 253 250
287 288 290 291 293 296 297 298 300 302 302 304 303 303 303 305 306 305 306 307 307 307 307 306 304 305 303 303 305 307 305 300 296 293 292 289 284 279 274 269 263 257 253